Location: Newark
(6.1731°S, 35.7419°E)
Time: 09:41:56
(UTC+00:00)

Courier 1B Rocket - All Passes

Search period start: 19 February 2020 00:00
Search period end: 29 February 2020 00:00
Orbit: 920 x 1202 km, 28.2° (Epoch: 17 February)

Date Brightness Start Highest point End Pass type
(mag) Time Alt. Az. Time Alt. Az. Time Alt. Az.
19 Feb - 04:33:09 10° N 04:35:41 12° NNE 04:38:15 10° NE daylight
19 Feb - 06:22:43 10° NW 06:29:54 41° NNE 06:37:10 10° E daylight
19 Feb - 08:16:00 10° WNW 08:23:47 66° SSW 08:31:27 10° SE daylight
19 Feb - 10:12:03 10° WSW 10:18:08 24° SSW 10:24:01 10° SSE daylight
19 Feb - 12:10:41 10° SSW 12:13:23 12° S 12:16:02 10° SSE daylight
19 Feb - 14:06:28 10° SSW 14:09:04 12° S 14:11:35 10° SSE daylight
19 Feb - 15:58:33 10° SSW 16:03:58 25° SSE 16:09:09 10° ESE daylight
19 Feb - 17:51:18 10° WSW 17:57:47 83° SSE 18:04:01 10° ENE visible
19 Feb - 19:46:06 10° W 19:51:08 25° NNW 19:56:09 10° NNE visible
20 Feb - 05:22:14 10° NNW 05:28:32 28° NNE 05:34:59 10° E daylight
20 Feb - 07:14:35 10° WNW 07:22:25 88° NNE 07:30:17 10° ESE daylight
20 Feb - 09:09:40 10° W 09:16:33 33° SSW 09:23:19 10° SE daylight
20 Feb - 11:07:32 10° SW 11:11:34 15° SSW 11:15:29 10° SSE daylight
20 Feb - 13:05:11 10° SSW 13:07:15 11° S 13:09:18 10° SSE daylight
20 Feb - 14:57:46 10° SSW 15:02:33 19° SSE 15:07:08 10° ESE daylight
20 Feb - 16:50:15 10° SW 16:56:44 55° SSE 17:02:52 10° ENE visible
20 Feb - 18:44:13 10° W 18:50:07 39° NNW 18:55:53 10° NE visible
21 Feb - 04:22:16 10° NNW 04:27:09 18° NNE 04:32:10 10° ENE daylight
21 Feb - 06:13:31 10° NW 06:21:05 62° NNE 06:28:49 10° ESE daylight
21 Feb - 08:07:38 10° W 08:15:04 46° SSW 08:22:27 10° SE daylight
21 Feb - 10:04:35 10° WSW 10:09:46 19° SSW 10:14:51 10° SSE daylight
21 Feb - 12:03:02 10° SSW 12:05:22 11° S 12:07:39 10° SSE daylight
21 Feb - 13:56:56 10° SSW 14:00:57 16° SSE 14:04:51 10° SE daylight
21 Feb - 15:49:17 10° SW 15:55:33 37° SSE 16:01:27 10° E daylight
21 Feb - 17:42:40 10° WSW 17:49:08 63° NNW 17:55:18 10° NE visible
21 Feb - 19:39:02 10° WNW 19:42:36 15° NNW 19:46:07 10° N visible
22 Feb - 03:23:30 10° N 03:25:41 11° NNE 03:27:54 10° NE visible
22 Feb - 05:12:46 10° NW 05:19:45 42° NNE 05:27:02 10° E daylight
22 Feb - 07:05:57 10° WNW 07:13:37 65° SSW 07:21:24 10° SE daylight
22 Feb - 09:01:54 10° WSW 09:08:04 25° SSW 09:14:08 10° SSE daylight
22 Feb - 11:00:14 10° SSW 11:03:27 13° S 11:06:36 10° SSE daylight
22 Feb - 12:55:54 10° SSW 12:59:13 13° S 13:02:27 10° SE daylight
22 Feb - 14:48:23 10° SW 14:54:14 27° SSE 14:59:45 10° ESE daylight
22 Feb - 16:41:21 10° WSW 16:48:07 85° SSE 16:54:28 10° ENE visible
22 Feb - 18:36:23 10° W 18:41:28 25° NNW 18:46:27 10° NNE visible
23 Feb - 04:12:23 10° NNW 04:18:28 28° NNE 04:24:48 10° E daylight
23 Feb - 06:04:37 10° WNW 06:12:15 90° NNE 06:20:08 10° ESE daylight
23 Feb - 07:59:36 10° W 08:06:26 33° SSW 08:13:19 10° SE daylight
23 Feb - 09:57:16 10° SW 10:01:32 15° SSW 10:05:45 10° SSE daylight
23 Feb - 11:54:30 10° SSW 11:57:22 12° S 12:00:09 10° SSE daylight
23 Feb - 13:47:29 10° SSW 13:52:45 21° SSE 13:57:45 10° ESE daylight
23 Feb - 15:40:11 10° SW 15:47:01 57° SSE 15:53:22 10° ENE daylight
23 Feb - 17:34:22 10° W 17:40:27 39° NNW 17:46:16 10° NE visible
24 Feb - 03:12:32 10° N 03:17:09 18° NNE 03:21:56 10° ENE visible
24 Feb - 05:03:38 10° NW 05:10:56 63° NNE 05:18:38 10° ESE daylight
24 Feb - 06:57:39 10° W 07:04:54 45° SSW 07:12:21 10° SE daylight
24 Feb - 08:54:27 10° WSW 08:59:42 19° SSW 09:04:56 10° SSE daylight
24 Feb - 10:52:29 10° SSW 10:55:24 12° S 10:58:17 10° SSE daylight
24 Feb - 12:46:31 10° SSW 12:51:06 17° SSE 12:55:30 10° SE daylight
24 Feb - 14:39:07 10° SW 14:45:47 40° SSE 14:51:58 10° E daylight
24 Feb - 16:32:41 10° WSW 16:39:26 62° NNW 16:45:45 10° NE visible
24 Feb - 18:29:19 10° WNW 18:32:54 15° NNW 18:36:26 10° N visible
25 Feb - 02:14:12 10° NNE 02:15:46 11° NNE 02:17:22 10° NE visible
25 Feb - 04:02:58 10° NW 04:09:41 42° NNE 04:16:49 10° E daylight
25 Feb - 05:56:03 10° WNW 06:03:28 63° SSW 06:11:14 10° SE daylight
25 Feb - 07:51:53 10° WSW 07:57:57 24° SSW 08:04:05 10° SSE daylight
25 Feb - 09:49:55 10° SSW 09:53:26 13° S 09:56:54 10° SSE daylight
25 Feb - 11:45:25 10° SSW 11:49:18 14° S 11:53:04 10° SE daylight
25 Feb - 13:38:07 10° SW 13:44:23 29° SSE 13:50:17 10° E daylight
25 Feb - 15:31:16 10° WSW 15:38:22 87° SSE 15:44:57 10° ENE daylight
25 Feb - 17:26:30 10° W 17:31:47 25° NNW 17:36:52 10° NNE visible
26 Feb - 03:02:41 10° NNW 03:08:28 27° NNE 03:14:34 10° E visible
26 Feb - 04:54:48 10° WNW 05:02:08 89° SSW 05:09:55 10° ESE daylight
26 Feb - 06:49:40 10° W 06:56:19 32° SSW 07:03:10 10° SE daylight
26 Feb - 08:47:10 10° SW 08:51:29 15° S 08:55:49 10° SSE daylight
26 Feb - 10:44:02 10° SSW 10:47:23 13° S 10:50:41 10° SSE daylight
26 Feb - 12:37:08 10° SSW 12:42:51 23° SSE 12:48:17 10° ESE daylight
26 Feb - 14:30:00 10° SW 14:37:12 60° SSE 14:43:51 10° ENE daylight
26 Feb - 16:24:21 10° W 16:30:44 39° NNW 16:36:42 10° NE visible
27 Feb - 02:02:56 10° N 02:07:14 17° NNE 02:11:42 10° ENE visible
27 Feb - 03:53:54 10° NW 04:00:53 63° NNE 04:08:23 10° ESE daylight
27 Feb - 05:47:49 10° W 05:54:48 43° SSW 06:02:08 10° SE daylight
27 Feb - 07:44:28 10° WSW 07:49:38 19° SSW 07:54:50 10° SSE daylight
27 Feb - 09:42:10 10° SSW 09:45:23 13° S 09:48:35 10° SSE daylight
27 Feb - 11:36:08 10° SSW 11:41:08 18° SSE 11:45:58 10° SE daylight
27 Feb - 13:28:52 10° SW 13:35:54 42° SSE 13:42:27 10° E daylight
27 Feb - 15:22:35 10° WSW 15:29:40 61° NNW 15:36:13 10° NE daylight
27 Feb - 17:19:22 10° WNW 17:23:11 16° NNW 17:26:53 10° N visible
28 Feb - 01:05:25 10° NNE 01:05:55 10° NNE 01:06:26 10° NNE visible
28 Feb - 02:53:18 10° NW 02:59:43 41° NNE 03:06:35 10° E visible
28 Feb - 04:46:18 10° WNW 04:53:23 61° SSW 05:00:59 10° SE daylight
28 Feb - 06:42:02 10° WSW 06:47:52 24° SSW 06:53:53 10° SSE daylight
28 Feb - 08:39:50 10° SSW 08:43:23 13° S 08:46:57 10° SSE daylight
28 Feb - 10:35:03 10° SSW 10:39:18 15° S 10:43:28 10° SE daylight
28 Feb - 12:27:49 10° SW 12:34:26 31° SSE 12:40:43 10° E daylight
28 Feb - 14:21:04 10° WSW 14:28:31 89° SE 14:35:24 10° ENE daylight
28 Feb - 16:16:27 10° W 16:22:02 25° NNW 16:27:19 10° NNE visible
